CST,Max TemperatureF,Mean TemperatureF,Min TemperatureF,Max Dew PointF,MeanDew PointF,Min DewpointF,Max Humidity, Mean Humidity, Min Humidity, Max Sea Level PressureIn, Mean Sea Level PressureIn, Min Sea Level PressureIn, Max VisibilityMiles, Mean VisibilityMiles, Min VisibilityMiles, Max Wind SpeedMPH, Mean Wind SpeedMPH, Max Gust SpeedMPH,PrecipitationIn, CloudCover, Events, WindDirDegrees
2012-11-1,77,55,33,39,35,32,93,53,24,30.08,29.99,29.87,10.0,10.0,7.0,15,8,18,0.00,0,,181
2012-11-2,68,50,33,39,36,32,93,64,30,30.15,29.95,29.81,10.0,10.0,10.0,28,10,33,0.00,0,,349
2012-11-3,62,46,30,41,35,30,100,72,34,30.24,30.18,30.14,10.0,10.0,10.0,13,9,22,0.00,0,,229
2012-11-4,69,50,32,37,33,28,93,56,24,30.19,30.12,30.05,10.0,10.0,10.0,21,10,30,0.00,1,,281
2012-11-5,59,46,33,37,34,32,100,65,39,30.25,30.16,30.06,10.0,10.0,10.0,15,9,17,0.00,1,,304
2012-11-6,64,48,33,41,35,28,87,60,34,30.24,30.16,30.06,10.0,10.0,10.0,16,10,23,0.00,0,,313
2012-11-7,71,50,30,41,35,27,93,62,33,30.18,30.04,29.89,10.0,10.0,10.0,18,8,24,0.00,0,,175
2012-11-8,64,46,28,37,33,28,100,62,34,29.91,29.87,29.83,10.0,10.0,10.0,18,8,23,0.00,0,,5
2012-11-9,60,45,30,41,35,28,100,78,45,29.82,29.72,29.61,10.0,9.6,0.8,16,8,17,0.00,0,,61
2012-11-10,75,52,28,46,39,27,100,69,25,29.81,29.56,29.42,10.0,8.3,0.2,40,16,54,0.00,4,Fog-Rain,257
2012-11-11,35,24,14,27,18,12,100,76,48,30.24,30.04,29.83,10.0,10.0,10.0,21,14,26,0.00,2,,325
2012-11-12,50,32,14,21,14,9,100,56,24,30.36,30.31,30.24,10.0,10.0,10.0,18,9,28,0.00,0,,262
2012-11-13,53,38,23,19,15,10,64,46,24,30.31,30.23,30.14,10.0,10.0,10.0,12,6,,0.00,0,,199
2012-11-14,60,40,21,32,25,14,93,59,31,30.29,30.21,30.12,10.0,10.0,10.0,15,9,17,0.00,0,,212
2012-11-15,57,44,30,32,28,21,86,59,36,30.41,30.29,30.14,10.0,10.0,10.0,17,10,22,0.00,0,,17
2012-11-16,59,41,23,37,31,21,100,70,41,30.41,30.28,30.13,10.0,10.0,10.0,23,8,28,0.00,0,,182
2012-11-17,62,46,30,37,34,27,100,71,36,30.13,30.08,30.05,10.0,9.5,2.0,17,10,22,0.00,0,,195
2012-11-18,55,42,28,41,35,28,100,83,58,30.05,29.98,29.91,10.0,9.1,0.2,10,5,,0.00,1,Fog,217
2012-11-19,68,50,33,36,33,30,87,60,28,30.22,30.15,30.03,10.0,9.9,7.0,17,10,22,0.00,0,,300
2012-11-20,69,50,30,36,32,27,87,54,27,30.24,30.18,30.12,10.0,10.0,10.0,21,10,26,0.00,0,,215
2012-11-21,71,52,32,32,28,23,75,48,21,30.12,29.95,29.80,10.0,10.0,10.0,18,10,24,0.00,0,,206
2012-11-22,60,43,26,36,25,12,81,49,32,30.44,30.06,29.77,10.0,10.0,10.0,30,14,38,0.00,0,,323
2012-11-23,50,36,21,23,19,14,80,54,30,30.57,30.44,30.25,10.0,10.0,10.0,17,10,,0.00,0,,276
2012-11-24,77,50,23,30,22,16,80,42,16,30.25,29.99,29.86,10.0,10.0,10.0,16,8,22,0.00,0,,248
2012-11-25,53,42,30,34,29,21,93,66,39,30.02,29.95,29.88,10.0,10.0,10.0,17,10,17,0.00,0,,55
2012-11-26,37,27,17,27,25,18,100,84,60,30.39,30.28,30.01,10.0,10.0,10.0,18,9,18,0.00,3,,44
2012-11-27,57,39,21,30,25,19,100,73,33,30.36,30.20,30.10,10.0,10.0,10.0,15,9,,0.00,0,,174
2012-11-28,57,36,15,32,26,14,100,71,36,30.27,30.18,30.04,10.0,10.0,7.0,15,7,18,0.00,0,,199
2012-11-29,69,46,23,27,21,14,86,48,20,30.03,29.98,29.93,10.0,10.0,10.0,16,8,21,0.00,0,,257
2012-11-30,62,45,28,41,26,14,87,49,26,30.07,29.98,29.84,10.0,10.0,10.0,16,8,21,0.00,0,,143